QPF
0.01 0.01 0.00 0.01 0.00 0.00 0.00 0.00 0.00 0.00 0.00 0.00 0.00 0.00 0.01 0.00 0.00 0.00 0.01 0.01 0.01 0.01 0.01 0.02 0.03 0.03 0.03 0.03 0.03 0.03 0.03 0.04 0.03 0.04 0.05 0.05 0.04 0.04 0.04 0.03 0.03 0.04 0.04 0.06 0.11 0.11 0.08 0.07 0.05
0.01 0.01 0.01 0.01 0.00 0.00 0.00 0.00 0.00 0.00 0.00 0.00 0.00 0.00 0.01 0.00 0.00 0.01 0.02 0.02 0.01 0.01 0.02 0.02 0.03 0.04 0.03 0.03 0.03 0.04 0.04 0.04 0.04 0.03 0.05 0.05 0.06 0.06 0.05 0.04 0.03 0.04 0.03 0.04 0.08 0.14 0.10 0.06 0.06
0.01 0.01 0.01 0.01 0.00 0.00 0.00 0.00 0.00 0.00 0.00 0.00 0.00 0.00 0.01 0.01 0.01 0.01 0.02 0.02 0.01 0.02 0.02 0.01 0.03 0.04 0.04 0.03 0.03 0.03 0.04 0.04 0.04 0.03 0.04 0.05 0.06 0.07 0.06 0.04 0.04 0.04 0.05 0.05 0.05 0.07 0.09 0.07 0.06
0.02 0.02 0.01 0.01 0.00 0.00 0.00 0.00 0.00 0.00 0.00 0.00 0.00 0.00 0.01 0.01 0.01 0.01 0.01 0.01 0.01 0.01 0.01 0.01 0.03 0.04 0.03 0.03 0.03 0.03 0.03 0.04 0.04 0.04 0.04 0.04 0.04 0.06 0.06 0.04 0.05 0.05 0.05 0.05 0.05 0.04 0.05 0.07 0.06
0.02 0.02 0.01 0.00 0.00 0.00 0.00 0.00 0.00 0.00 0.00 0.00 0.01 0.00 0.01 0.01 0.01 0.01 0.01 0.01 0.01 0.01 0.01 0.01 0.03 0.03 0.03 0.03 0.03 0.02 0.02 0.04 0.05 0.06 0.06 0.05 0.05 0.05 0.04 0.05 0.06 0.05 0.04 0.05 0.06 0.05 0.04 0.04 0.04
0.02 0.02 0.01 0.00 0.00 0.00 0.00 0.00 0.00 0.00 0.00 0.00 0.00 0.00 0.01 0.02 0.02 0.01 0.01 0.01 0.01 0.01 0.01 0.02 0.03 0.04 0.04 0.03 0.03 0.02 0.02 0.04 0.06 0.07 0.05 0.05 0.06 0.05 0.04 0.04 0.05 0.05 0.05 0.05 0.06 0.05 0.03 0.03 0.03
0.03 0.02 0.01 0.00 0.00 0.00 0.00 0.00 0.00 0.00 0.00 0.01 0.00 0.00 0.01 0.02 0.02 0.01 0.00 0.01 0.01 0.01 0.01 0.03 0.04 0.04 0.04 0.04 0.05 0.03 0.03 0.03 0.04 0.05 0.04 0.04 0.05 0.05 0.04 0.04 0.05 0.06 0.05 0.06 0.06 0.05 0.03 0.03 0.02
0.03 0.03 0.01 0.00 0.00 0.01 0.01 0.00 0.00 0.00 0.01 0.01 0.01 0.00 0.00 0.01 0.01 0.01 0.00 0.01 0.01 0.01 0.01 0.03 0.04 0.04 0.03 0.04 0.05 0.03 0.03 0.03 0.02 0.03 0.03 0.03 0.04 0.04 0.03 0.03 0.06 0.08 0.07 0.06 0.05 0.05 0.04 0.03 0.02
0.02 0.04 0.02 0.00 0.00 0.01 0.01 0.01 0.01 0.00 0.01 0.01 0.01 0.00 0.00 0.00 0.01 0.01 0.01 0.01 0.01 0.01 0.02 0.03 0.05 0.04 0.03 0.04 0.04 0.04 0.03 0.04 0.03 0.03 0.03 0.04 0.05 0.04 0.03 0.04 0.06 0.09 0.10 0.08 0.06 0.04 0.04 0.02 0.01
0.02 0.03 0.02 0.00 0.00 0.00 0.01 0.01 0.01 0.01 0.01 0.01 0.01 0.00 0.00 0.00 0.01 0.00 0.01 0.01 0.01 0.01 0.02 0.04 0.05 0.05 0.05 0.04 0.04 0.04 0.04 0.04 0.03 0.02 0.02 0.03 0.04 0.04 0.05 0.06 0.06 0.07 0.09 0.08 0.06 0.03 0.02 0.02 0.02
0.02 0.02 0.01 0.01 0.00 0.00 0.01 0.01 0.01 0.01 0.01 0.01 0.01 0.01 0.01 0.00 0.01 0.01 0.00 0.00 0.01 0.01 0.02 0.03 0.05 0.07 0.08 0.05 0.05 0.04 0.03 0.03 0.03 0.02 0.02 0.02 0.03 0.04 0.05 0.06 0.08 0.07 0.07 0.05 0.05 0.04 0.03 0.02 0.03
0.01 0.01 0.01 0.01 0.01 0.01 0.01 0.01 0.01 0.02 0.01 0.01 0.00 0.00 0.01 0.00 0.01 0.01 0.00 0.00 0.01 0.01 0.02 0.04 0.05 0.07 0.10 0.07 0.05 0.03 0.03 0.03 0.03 0.03 0.02 0.02 0.03 0.03 0.04 0.06 0.06 0.04 0.04 0.04 0.04 0.05 0.05 0.03 0.03
0.01 0.01 0.01 0.01 0.01 0.02 0.02 0.02 0.01 0.01 0.01 0.01 0.01 0.00 0.01 0.01 0.01 0.01 0.01 0.01 0.01 0.02 0.03 0.04 0.04 0.07 0.11 0.09 0.05 0.04 0.04 0.03 0.03 0.03 0.02 0.02 0.03 0.04 0.05 0.06 0.05 0.03 0.02 0.02 0.03 0.05 0.06 0.05 0.03
0.01 0.01 0.01 0.01 0.01 0.01 0.02 0.02 0.02 0.01 0.01 0.02 0.01 0.01 0.01 0.02 0.02 0.02 0.01 0.01 0.01 0.01 0.03 0.05 0.06 0.08 0.13 0.14 0.08 0.05 0.05 0.04 0.03 0.03 0.02 0.02 0.04 0.06 0.07 0.07 0.05 0.03 0.02 0.02 0.03 0.04 0.05 0.05 0.05
0.00 0.01 0.01 0.01 0.01 0.01 0.01 0.01 0.00 0.00 0.01 0.01 0.01 0.01 0.01 0.01 0.02 0.02 0.02 0.01 0.01 0.01 0.02 0.05 0.07 0.08 0.13 0.16 0.11 0.07 0.05 0.05 0.03 0.02 0.02 0.03 0.05 0.06 0.08 0.07 0.05 0.03 0.02 0.01 0.02 0.04 0.04 0.04 0.04
0.01 0.01 0.01 0.01 0.01 0.02 0.02 0.01 0.01 0.00 0.01 0.01 0.01 0.01 0.00 0.01 0.01 0.02 0.02 0.01 0.01 0.01 0.02 0.04 0.06 0.07 0.10 0.14 0.12 0.07 0.05 0.05 0.03 0.03 0.03 0.04 0.05 0.05 0.08 0.07 0.04 0.02 0.02 0.01 0.02 0.03 0.04 0.04 0.05
0.03 0.02 0.01 0.01 0.01 0.01 0.03 0.02 0.01 0.00 0.00 0.00 0.00 0.00 0.00 0.01 0.01 0.02 0.02 0.01 0.01 0.01 0.01 0.03 0.06 0.07 0.07 0.11 0.12 0.08 0.06 0.05 0.03 0.02 0.03 0.04 0.07 0.06 0.06 0.06 0.04 0.02 0.02 0.02 0.02 0.03 0.04 0.05 0.05
0.03 0.02 0.02 0.01 0.01 0.02 0.03 0.02 0.01 0.00 0.00 0.00 0.00 0.00 0.01 0.01 0.01 0.02 0.02 0.02 0.01 0.01 0.01 0.03 0.05 0.06 0.06 0.11 0.12 0.09 0.07 0.06 0.04 0.02 0.03 0.06 0.09 0.06 0.06 0.05 0.03 0.03 0.02 0.02 0.02 0.03 0.04 0.05 0.05
0.02 0.02 0.01 0.01 0.01 0.02 0.02 0.02 0.01 0.01 0.00 0.00 0.00 0.01 0.01 0.01 0.02 0.02 0.02 0.02 0.02 0.01 0.01 0.02 0.05 0.07 0.06 0.10 0.12 0.09 0.07 0.07 0.05 0.03 0.03 0.07 0.10 0.07 0.06 0.05 0.03 0.02 0.02 0.02 0.02 0.03 0.03 0.04 0.04
0.02 0.02 0.01 0.01 0.01 0.02 0.02 0.02 0.02 0.01 0.00 0.00 0.00 0.00 0.01 0.01 0.02 0.02 0.02 0.02 0.02 0.02 0.01 0.02 0.04 0.07 0.08 0.09 0.13 0.10 0.08 0.07 0.05 0.03 0.05 0.08 0.09 0.08 0.06 0.04 0.03 0.02 0.02 0.02 0.03 0.03 0.03 0.03 0.04
0.02 0.02 0.01 0.01 0.01 0.01 0.02 0.03 0.02 0.01 0.01 0.00 0.00 0.00 0.00 0.01 0.01 0.01 0.02 0.01 0.02 0.02 0.03 0.03 0.03 0.05 0.09 0.10 0.13 0.14 0.11 0.09 0.07 0.05 0.05 0.06 0.07 0.07 0.05 0.04 0.03 0.03 0.02 0.02 0.03 0.03 0.03 0.03 0.03
0.02 0.01 0.01 0.02 0.02 0.02 0.01 0.03 0.02 0.02 0.01 0.01 0.00 0.00 0.00 0.01 0.01 0.01 0.01 0.01 0.01 0.02 0.02 0.03 0.04 0.05 0.07 0.10 0.13 0.16 0.18 0.16 0.10 0.07 0.05 0.05 0.05 0.06 0.05 0.04 0.03 0.02 0.02 0.02 0.02 0.02 0.03 0.03 0.03
0.02 0.01 0.01 0.02 0.03 0.03 0.02 0.02 0.02 0.02 0.02 0.02 0.01 0.00 0.00 0.00 0.01 0.01 0.01 0.01 0.01 0.01 0.02 0.02 0.03 0.05 0.06 0.08 0.11 0.15 0.18 0.19 0.14 0.10 0.08 0.06 0.06 0.06 0.05 0.04 0.03 0.03 0.03 0.02 0.02 0.02 0.02 0.03 0.03
0.01 0.02 0.03 0.03 0.05 0.06 0.02 0.01 0.01 0.01 0.03 0.03 0.02 0.00 0.00 0.00 0.01 0.02 0.02 0.02 0.02 0.02 0.01 0.02 0.03 0.04 0.05 0.07 0.08 0.10 0.13 0.16 0.15 0.11 0.10 0.09 0.07 0.06 0.05 0.04 0.03 0.03 0.03 0.03 0.02 0.02 0.02 0.02 0.03
0.02 0.03 0.05 0.05 0.05 0.04 0.02 0.02 0.02 0.02 0.02 0.03 0.02 0.01 0.00 0.01 0.01 0.01 0.02 0.02 0.02 0.03 0.02 0.02 0.03 0.04 0.04 0.06 0.06 0.07 0.08 0.11 0.13 0.13 0.11 0.10 0.09 0.07 0.05 0.04 0.04 0.03 0.03 0.03 0.03 0.03 0.03 0.03 0.03
0.01 0.02 0.03 0.03 0.03 0.02 0.02 0.02 0.02 0.02 0.02 0.02 0.02 0.02 0.01 0.01 0.01 0.01 0.01 0.02 0.03 0.03 0.02 0.02 0.02 0.02 0.03 0.04 0.05 0.05 0.06 0.08 0.10 0.11 0.10 0.09 0.09 0.09 0.06 0.04 0.04 0.04 0.04 0.04 0.04 0.03 0.03 0.03 0.04
0.01 0.01 0.01 0.03 0.03 0.02 0.02 0.02 0.01 0.01 0.01 0.01 0.02 0.02 0.03 0.02 0.02 0.01 0.01 0.02 0.03 0.03 0.03 0.03 0.02 0.02 0.02 0.03 0.04 0.04 0.05 0.06 0.08 0.10 0.09 0.07 0.06 0.07 0.07 0.06 0.04 0.03 0.04 0.04 0.04 0.04 0.04 0.04 0.04
0.01 0.01 0.02 0.03 0.03 0.02 0.02 0.02 0.01 0.01 0.01 0.01 0.02 0.02 0.03 0.03 0.03 0.02 0.02 0.02 0.04 0.04 0.04 0.03 0.04 0.03 0.02 0.03 0.04 0.04 0.04 0.05 0.06 0.08 0.10 0.08 0.06 0.05 0.04 0.05 0.06 0.05 0.04 0.05 0.04 0.03 0.03 0.03 0.03
0.02 0.02 0.02 0.02 0.02 0.02 0.02 0.01 0.02 0.02 0.02 0.02 0.02 0.02 0.02 0.02 0.03 0.03 0.03 0.02 0.03 0.04 0.04 0.04 0.04 0.04 0.04 0.04 0.04 0.05 0.04 0.05 0.07 0.07 0.08 0.09 0.08 0.06 0.05 0.04 0.05 0.06 0.04 0.05 0.05 0.03 0.02 0.02 0.03
0.01 0.01 0.02 0.02 0.02 0.01 0.01 0.01 0.01 0.01 0.01 0.01 0.01 0.02 0.02 0.02 0.02 0.03 0.03 0.03 0.02 0.03 0.04 0.04 0.03 0.03 0.04 0.05 0.05 0.06 0.06 0.05 0.07 0.07 0.08 0.08 0.08 0.08 0.06 0.04 0.04 0.04 0.05 0.05 0.06 0.05 0.03 0.02 0.02
MSLP
1014.87 1015.36 1015.74 1015.94 1015.92 1015.69 1015.29 1014.80 1014.30 1013.88 1013.60 1013.46 1013.45 1013.52 1013.60 1013.65 1013.64 1013.56 1013.47 1013.40 1013.43 1013.60 1013.92 1014.38 1014.93 1015.51 1016.05 1016.49 1016.81 1017.02 1017.15 1017.23 1017.32 1017.45 1017.63 1017.85 1018.09 1018.31 1018.50 1018.64 1018.75 1018.83 1018.91 1019.01 1019.14 1019.28 1019.43 1019.55 1019.63
1014.84 1015.24 1015.51 1015.57 1015.42 1015.06 1014.56 1014.00 1013.47 1013.06 1012.82 1012.73 1012.78 1012.90 1013.03 1013.12 1013.14 1013.09 1013.03 1013.01 1013.10 1013.33 1013.73 1014.27 1014.89 1015.54 1016.12 1016.60 1016.95 1017.19 1017.33 1017.43 1017.54 1017.69 1017.89 1018.12 1018.36 1018.59 1018.78 1018.93 1019.04 1019.13 1019.23 1019.37 1019.53 1019.72 1019.90 1020.05 1020.14
1014.55 1014.80 1014.90 1014.80 1014.50 1014.05 1013.50 1012.94 1012.47 1012.15 1012.01 1012.04 1012.19 1012.40 1012.59 1012.73 1012.78 1012.77 1012.74 1012.77 1012.91 1013.20 1013.66 1014.26 1014.94 1015.62 1016.25 1016.76 1017.14 1017.39 1017.55 1017.68 1017.81 1017.97 1018.18 1018.41 1018.65 1018.87 1019.05 1019.19 1019.30 1019.40 1019.52 1019.69 1019.89 1020.12 1020.34 1020.52 1020.62
1013.98 1014.04 1013.95 1013.68 1013.27 1012.75 1012.21 1011.72 1011.37 1011.21 1011.23 1011.42 1011.71 1012.03 1012.31 1012.51 1012.60 1012.63 1012.64 1012.71 1012.89 1013.23 1013.73 1014.36 1015.07 1015.78 1016.42 1016.94 1017.34 1017.61 1017.80 1017.94 1018.09 1018.27 1018.48 1018.71 1018.95 1019.16 1019.33 1019.46 1019.56 1019.68 1019.82 1020.01 1020.24 1020.50 1020.76 1020.97 1021.09
1013.21 1013.06 1012.78 1012.37 1011.86 1011.32 1010.83 1010.47 1010.29 1010.32 1010.54 1010.91 1011.36 1011.80 1012.17 1012.43 1012.58 1012.65 1012.70 1012.81 1013.02 1013.39 1013.91 1014.55 1015.26 1015.97 1016.61 1017.14 1017.54 1017.82 1018.03 1018.20 1018.37 1018.56 1018.78 1019.02 1019.25 1019.46 1019.63 1019.76 1019.88 1020.01 1020.17 1020.38 1020.63 1020.91 1021.19 1021.41 1021.57
1012.34 1012.01 1011.57 1011.03 1010.47 1009.95 1009.55 1009.33 1009.33 1009.56 1009.97 1010.51 1011.10 1011.66 1012.12 1012.45 1012.66 1012.78 1012.88 1013.02 1013.27 1013.65 1014.17 1014.80 1015.48 1016.16 1016.78 1017.29 1017.70 1018.00 1018.22 1018.42 1018.61 1018.83 1019.06 1019.31 1019.55 1019.77 1019.96 1020.11 1020.26 1020.42 1020.60 1020.83 1021.09 1021.37 1021.64 1021.87 1022.02
1011.51 1011.04 1010.48 1009.88 1009.31 1008.84 1008.54 1008.45 1008.60 1008.99 1009.55 1010.21 1010.90 1011.54 1012.07 1012.47 1012.74 1012.92 1013.08 1013.27 1013.55 1013.94 1014.44 1015.04 1015.68 1016.31 1016.89 1017.39 1017.79 1018.10 1018.36 1018.58 1018.81 1019.04 1019.30 1019.57 1019.83 1020.08 1020.30 1020.51 1020.70 1020.90 1021.12 1021.36 1021.62 1021.87 1022.12 1022.32 1022.46
1010.82 1010.27 1009.66 1009.05 1008.50 1008.09 1007.88 1007.89 1008.15 1008.62 1009.26 1009.98 1010.71 1011.38 1011.95 1012.40 1012.74 1013.00 1013.22 1013.47 1013.79 1014.18 1014.67 1015.23 1015.82 1016.40 1016.94 1017.42 1017.82 1018.15 1018.43 1018.69 1018.95 1019.22 1019.50 1019.79 1020.08 1020.37 1020.65 1020.92 1021.18 1021.44 1021.69 1021.94 1022.18 1022.41 1022.60 1022.75 1022.85
1010.31 1009.76 1009.16 1008.58 1008.09 1007.74 1007.59 1007.67 1007.96 1008.44 1009.06 1009.76 1010.46 1011.12 1011.71 1012.19 1012.59 1012.93 1013.25 1013.57 1013.93 1014.35 1014.83 1015.34 1015.89 1016.42 1016.92 1017.38 1017.79 1018.15 1018.47 1018.77 1019.06 1019.36 1019.66 1019.97 1020.30 1020.63 1020.97 1021.31 1021.64 1021.96 1022.26 1022.53 1022.76 1022.95 1023.08 1023.16 1023.22
1009.99 1009.48 1008.94 1008.44 1008.02 1007.74 1007.63 1007.71 1007.98 1008.40 1008.93 1009.53 1010.14 1010.74 1011.30 1011.82 1012.28 1012.71 1013.12 1013.54 1013.97 1014.42 1014.89 1015.38 1015.89 1016.38 1016.87 1017.33 1017.76 1018.15 1018.52 1018.86 1019.18 1019.50 1019.82 1020.14 1020.48 1020.85 1021.24 1021.64 1022.05 1022.44 1022.79 1023.09 1023.31 1023.46 1023.54 1023.57 1023.57
1009.80 1009.37 1008.93 1008.52 1008.19 1007.97 1007.88 1007.94 1008.12 1008.42 1008.81 1009.26 1009.74 1010.25 1010.77 1011.30 1011.82 1012.34 1012.86 1013.38 1013.88 1014.38 1014.88 1015.36 1015.85 1016.32 1016.80 1017.28 1017.74 1018.18 1018.60 1018.99 1019.34 1019.67 1019.99 1020.31 1020.65 1021.03 1021.44 1021.90 1022.37 1022.82 1023.23 1023.57 1023.81 1023.95 1024.00 1023.98 1023.95
1009.67 1009.35 1009.02 1008.71 1008.46 1008.29 1008.21 1008.21 1008.30 1008.46 1008.67 1008.95 1009.29 1009.69 1010.15 1010.67 1011.25 1011.86 1012.49 1013.11 1013.71 1014.27 1014.80 1015.30 1015.78 1016.26 1016.75 1017.26 1017.77 1018.27 1018.74 1019.18 1019.56 1019.90 1020.20 1020.50 1020.81 1021.18 1021.60 1022.07 1022.59 1023.10 1023.57 1023.96 1024.24 1024.41 1024.46 1024.44 1024.39
1009.57 1009.34 1009.10 1008.89 1008.72 1008.59 1008.50 1008.46 1008.44 1008.45 1008.51 1008.62 1008.81 1009.10 1009.50 1010.02 1010.64 1011.34 1012.06 1012.79 1013.47 1014.10 1014.67 1015.20 1015.70 1016.20 1016.73 1017.27 1017.84 1018.40 1018.94 1019.42 1019.83 1020.17 1020.46 1020.72 1021.00 1021.32 1021.72 1022.20 1022.73 1023.28 1023.81 1024.27 1024.61 1024.84 1024.94 1024.97 1024.94
1009.48 1009.31 1009.14 1008.99 1008.87 1008.77 1008.68 1008.59 1008.49 1008.39 1008.32 1008.29 1008.35 1008.54 1008.89 1009.39 1010.04 1010.80 1011.60 1012.41 1013.18 1013.88 1014.51 1015.08 1015.61 1016.15 1016.71 1017.30 1017.93 1018.55 1019.14 1019.67 1020.12 1020.47 1020.74 1020.98 1021.21 1021.49 1021.85 1022.30 1022.83 1023.41 1023.98 1024.50 1024.94 1025.25 1025.45 1025.55 1025.60
1009.41 1009.26 1009.12 1009.00 1008.90 1008.82 1008.72 1008.60 1008.45 1008.28 1008.10 1007.98 1007.95 1008.06 1008.35 1008.83 1009.48 1010.27 1011.13 1012.01 1012.85 1013.62 1014.30 1014.92 1015.50 1016.08 1016.68 1017.32 1017.99 1018.67 1019.31 1019.89 1020.37 1020.74 1021.02 1021.24 1021.45 1021.69 1022.01 1022.42 1022.94 1023.52 1024.12 1024.70 1025.21 1025.63 1025.94 1026.16 1026.31
1009.40 1009.22 1009.07 1008.94 1008.83 1008.74 1008.64 1008.51 1008.33 1008.12 1007.89 1007.70 1007.61 1007.65 1007.89 1008.32 1008.96 1009.75 1010.64 1011.56 1012.46 1013.29 1014.04 1014.72 1015.36 1015.98 1016.62 1017.29 1017.99 1018.70 1019.39 1020.01 1020.53 1020.94 1021.24 1021.47 1021.68 1021.90 1022.20 1022.58 1023.07 1023.63 1024.25 1024.86 1025.44 1025.96 1026.38 1026.72 1026.99
1009.48 1009.25 1009.03 1008.85 1008.70 1008.58 1008.46 1008.32 1008.14 1007.92 1007.68 1007.46 1007.32 1007.31 1007.48 1007.86 1008.45 1009.22 1010.10 1011.05 1012.00 1012.90 1013.72 1014.47 1015.16 1015.83 1016.50 1017.19 1017.91 1018.63 1019.34 1019.98 1020.54 1021.00 1021.36 1021.64 1021.88 1022.12 1022.41 1022.78 1023.23 1023.77 1024.37 1025.00 1025.62 1026.20 1026.73 1027.18 1027.56
1009.68 1009.36 1009.05 1008.78 1008.55 1008.38 1008.23 1008.09 1007.91 1007.70 1007.47 1007.24 1007.06 1007.00 1007.11 1007.42 1007.94 1008.65 1009.52 1010.48 1011.46 1012.43 1013.33 1014.17 1014.93 1015.65 1016.34 1017.04 1017.74 1018.45 1019.14 1019.80 1020.39 1020.90 1021.33 1021.68 1021.99 1022.29 1022.61 1022.98 1023.42 1023.92 1024.49 1025.10 1025.72 1026.33 1026.92 1027.46 1027.94
1009.98 1009.55 1009.12 1008.73 1008.41 1008.17 1007.98 1007.82 1007.66 1007.47 1007.25 1007.02 1006.83 1006.72 1006.75 1006.97 1007.40 1008.05 1008.87 1009.83 1010.86 1011.89 1012.89 1013.82 1014.66 1015.44 1016.16 1016.84 1017.51 1018.18 1018.83 1019.47 1020.07 1020.63 1021.14 1021.59 1022.00 1022.39 1022.77 1023.17 1023.60 1024.07 1024.59 1025.15 1025.74 1026.34 1026.94 1027.52 1028.06
1010.34 1009.80 1009.24 1008.72 1008.29 1007.96 1007.72 1007.55 1007.40 1007.24 1007.05 1006.83 1006.62 1006.46 1006.41 1006.53 1006.86 1007.42 1008.19 1009.14 1010.19 1011.30 1012.40 1013.44 1014.38 1015.22 1015.97 1016.64 1017.26 1017.86 1018.45 1019.04 1019.64 1020.22 1020.80 1021.35 1021.87 1022.37 1022.83 1023.29 1023.73 1024.18 1024.65 1025.14 1025.67 1026.22 1026.79 1027.38 1027.95
1010.70 1010.05 1009.37 1008.73 1008.19 1007.78 1007.49 1007.30 1007.17 1007.04 1006.89 1006.69 1006.47 1006.26 1006.14 1006.15 1006.37 1006.83 1007.53 1008.44 1009.52 1010.69 1011.89 1013.04 1014.09 1015.00 1015.79 1016.45 1017.03 1017.55 1018.06 1018.58 1019.13 1019.72 1020.34 1020.98 1021.61 1022.22 1022.78 1023.30 1023.78 1024.22 1024.65 1025.07 1025.52 1026.00 1026.52 1027.07 1027.64
1011.05 1010.29 1009.50 1008.75 1008.12 1007.64 1007.32 1007.13 1007.03 1006.94 1006.83 1006.66 1006.44 1006.20 1006.00 1005.91 1006.00 1006.34 1006.94 1007.80 1008.86 1010.08 1011.36 1012.61 1013.76 1014.77 1015.60 1016.27 1016.81 1017.26 1017.68 1018.12 1018.62 1019.19 1019.82 1020.52 1021.23 1021.94 1022.60 1023.19 1023.71 1024.17 1024.57 1024.94 1025.33 1025.73 1026.19 1026.69 1027.23
1011.36 1010.53 1009.65 1008.82 1008.12 1007.60 1007.26 1007.09 1007.02 1007.00 1006.95 1006.83 1006.62 1006.36 1006.09 1005.89 1005.85 1006.05 1006.52 1007.27 1008.29 1009.49 1010.81 1012.14 1013.38 1014.47 1015.36 1016.06 1016.59 1017.00 1017.35 1017.71 1018.14 1018.67 1019.29 1020.01 1020.78 1021.55 1022.29 1022.96 1023.53 1024.01 1024.41 1024.76 1025.10 1025.45 1025.85 1026.31 1026.81
1011.67 1010.78 1009.85 1008.97 1008.24 1007.70 1007.37 1007.23 1007.22 1007.27 1007.30 1007.25 1007.08 1006.81 1006.49 1006.19 1006.00 1006.03 1006.33 1006.93 1007.82 1008.96 1010.26 1011.61 1012.91 1014.06 1015.03 1015.78 1016.33 1016.73 1017.04 1017.35 1017.73 1018.20 1018.80 1019.51 1020.29 1021.11 1021.90 1022.62 1023.24 1023.76 1024.18 1024.54 1024.86 1025.19 1025.56 1025.98 1026.46
1012.02 1011.10 1010.15 1009.26 1008.52 1007.99 1007.69 1007.61 1007.67 1007.81 1007.94 1007.96 1007.86 1007.60 1007.24 1006.84 1006.51 1006.34 1006.43 1006.82 1007.52 1008.51 1009.71 1011.02 1012.32 1013.52 1014.54 1015.36 1015.96 1016.40 1016.73 1017.02 1017.37 1017.81 1018.37 1019.05 1019.82 1020.64 1021.45 1022.20 1022.86 1023.42 1023.88 1024.26 1024.61 1024.95 1025.32 1025.74 1026.21
1012.47 1011.55 1010.61 1009.74 1009.02 1008.51 1008.26 1008.23 1008.37 1008.61 1008.84 1008.97 1008.94 1008.72 1008.34 1007.87 1007.38 1007.02 1006.86 1006.98 1007.43 1008.19 1009.20 1010.39 1011.63 1012.82 1013.89 1014.77 1015.45 1015.96 1016.35 1016.69 1017.04 1017.47 1018.01 1018.65 1019.39 1020.19 1020.99 1021.75 1022.43 1023.02 1023.52 1023.95 1024.34 1024.72 1025.12 1025.56 1026.04
1013.06 1012.16 1011.25 1010.41 1009.72 1009.26 1009.04 1009.07 1009.29 1009.62 1009.96 1010.20 1010.26 1010.11 1009.74 1009.21 1008.60 1008.04 1007.62 1007.45 1007.59 1008.05 1008.80 1009.78 1010.89 1012.02 1013.08 1014.02 1014.79 1015.40 1015.89 1016.31 1016.71 1017.17 1017.70 1018.32 1019.02 1019.78 1020.54 1021.28 1021.96 1022.57 1023.11 1023.59 1024.03 1024.47 1024.92 1025.40 1025.91
1013.81 1012.95 1012.08 1011.27 1010.62 1010.18 1009.99 1010.06 1010.34 1010.75 1011.19 1011.54 1011.72 1011.65 1011.33 1010.79 1010.09 1009.36 1008.70 1008.24 1008.04 1008.16 1008.59 1009.29 1010.19 1011.19 1012.20 1013.15 1013.99 1014.71 1015.32 1015.85 1016.35 1016.86 1017.41 1018.03 1018.70 1019.41 1020.13 1020.84 1021.50 1022.10 1022.66 1023.18 1023.67 1024.17 1024.68 1025.21 1025.76
1014.72 1013.90 1013.06 1012.28 1011.63 1011.20 1011.02 1011.10 1011.42 1011.89 1012.41 1012.87 1013.17 1013.22 1012.98 1012.48 1011.75 1010.91 1010.06 1009.34 1008.82 1008.59 1008.67 1009.04 1009.67 1010.47 1011.36 1012.27 1013.14 1013.94 1014.65 1015.30 1015.91 1016.50 1017.11 1017.74 1018.40 1019.07 1019.75 1020.41 1021.03 1021.62 1022.18 1022.72 1023.25 1023.79 1024.35 1024.93 1025.53
1015.74 1014.94 1014.12 1013.34 1012.70 1012.24 1012.04 1012.11 1012.42 1012.92 1013.51 1014.06 1014.48 1014.67 1014.56 1014.15 1013.46 1012.59 1011.63 1010.70 1009.92 1009.37 1009.10 1009.14 1009.45 1010.00 1010.70 1011.50 1012.33 1013.14 1013.93 1014.67 1015.37 1016.06 1016.73 1017.39 1018.06 1018.72 1019.36 1019.98 1020.57 1021.14 1021.68 1022.22 1022.76 1023.33 1023.93 1024.54 1025.17
Thickness
5675 5678 5680 5679 5672 5668 5671 5679 5682 5680 5681 5682 5683 5685 5687 5685 5683 5678 5674 5678 5679 5680 5680 5680 5681 5682 5683 5684 5685 5685 5686 5686 5687 5688 5688 5689 5689 5690 5691 5692 5693 5694 5694 5695 5695 5695 5695 5696 5696
5670 5672 5672 5669 5663 5662 5668 5675 5674 5676 5675 5673 5675 5677 5678 5675 5672 5669 5668 5670 5672 5673 5674 5675 5675 5677 5678 5679 5680 5680 5681 5681 5682 5683 5683 5684 5685 5685 5686 5687 5688 5688 5689 5690 5691 5690 5691 5691 5691
5664 5665 5663 5658 5656 5663 5667 5668 5669 5667 5666 5667 5668 5668 5668 5665 5663 5662 5661 5663 5665 5667 5668 5669 5670 5671 5672 5674 5675 5675 5676 5676 5677 5678 5678 5679 5680 5680 5681 5682 5683 5683 5684 5685 5685 5685 5685 5686 5686
5658 5656 5654 5650 5651 5658 5660 5660 5658 5658 5658 5659 5662 5659 5656 5652 5653 5654 5654 5656 5659 5660 5662 5663 5663 5664 5666 5667 5668 5669 5670 5671 5672 5672 5673 5674 5674 5675 5676 5676 5677 5677 5678 5679 5680 5680 5680 5680 5681
5652 5649 5643 5642 5649 5653 5652 5650 5650 5652 5652 5652 5654 5655 5650 5644 5644 5646 5648 5650 5652 5653 5655 5656 5657 5658 5660 5661 5662 5663 5664 5665 5666 5667 5667 5668 5669 5669 5670 5670 5671 5672 5673 5673 5674 5674 5674 5675 5675
5641 5642 5638 5640 5646 5645 5643 5642 5643 5644 5645 5643 5644 5646 5644 5637 5638 5639 5641 5643 5644 5645 5646 5648 5650 5651 5653 5654 5655 5657 5658 5659 5660 5661 5661 5662 5662 5663 5664 5665 5665 5666 5667 5668 5668 5668 5668 5669 5669
5634 5632 5634 5638 5639 5637 5635 5635 5635 5638 5637 5635 5637 5639 5637 5631 5630 5632 5634 5635 5636 5637 5639 5640 5641 5644 5645 5647 5648 5649 5651 5652 5653 5654 5654 5655 5655 5656 5657 5658 5659 5660 5661 5662 5662 5663 5663 5663 5663
5629 5626 5624 5628 5630 5629 5628 5625 5625 5628 5629 5626 5627 5631 5630 5625 5622 5624 5625 5627 5628 5629 5630 5632 5634 5636 5638 5639 5640 5642 5643 5644 5645 5646 5647 5648 5648 5649 5650 5651 5652 5653 5653 5654 5655 5656 5656 5656 5656
5618 5615 5619 5623 5623 5622 5619 5616 5614 5614 5617 5615 5615 5617 5616 5615 5614 5616 5617 5618 5619 5621 5622 5624 5625 5628 5629 5631 5633 5634 5635 5636 5637 5638 5639 5640 5641 5642 5643 5644 5645 5646 5646 5647 5648 5648 5649 5649 5650
5608 5608 5614 5615 5616 5613 5607 5607 5606 5606 5608 5607 5606 5604 5604 5605 5606 5608 5610 5611 5612 5613 5614 5615 5617 5619 5621 5622 5625 5626 5627 5628 5630 5631 5632 5633 5634 5634 5635 5635 5637 5638 5638 5639 5640 5641 5642 5643 5644
5600 5602 5603 5601 5600 5600 5597 5595 5596 5600 5601 5603 5603 5600 5597 5597 5599 5601 5603 5604 5605 5605 5605 5606 5608 5609 5611 5613 5616 5617 5619 5620 5622 5623 5624 5625 5626 5627 5627 5628 5629 5630 5631 5632 5632 5634 5635 5637 5638
5588 5588 5590 5589 5587 5586 5587 5587 5586 5588 5593 5593 5594 5593 5590 5590 5591 5592 5594 5595 5596 5596 5596 5597 5598 5600 5602 5604 5606 5608 5610 5612 5613 5614 5616 5617 5618 5619 5620 5621 5622 5623 5624 5625 5626 5627 5628 5629 5631
5578 5577 5575 5575 5574 5575 5576 5577 5579 5580 5582 5581 5581 5580 5582 5582 5583 5584 5585 5585 5587 5587 5588 5588 5589 5591 5593 5595 5598 5599 5601 5603 5604 5606 5607 5609 5610 5611 5612 5613 5614 5615 5616 5617 5618 5619 5620 5621 5622
5571 5569 5567 5567 5567 5566 5566 5568 5569 5574 5573 5571 5570 5570 5572 5573 5574 5575 5575 5576 5577 5578 5579 5579 5580 5581 5583 5585 5587 5590 5592 5593 5595 5597 5598 5600 5601 5602 5603 5604 5605 5607 5608 5609 5610 5611 5612 5612 5613
5560 5559 5560 5560 5560 5560 5560 5563 5565 5568 5564 5565 5564 5562 5562 5563 5564 5565 5566 5566 5568 5569 5569 5569 5570 5571 5573 5575 5577 5580 5582 5584 5586 5587 5589 5590 5592 5593 5595 5596 5597 5598 5599 5600 5602 5602 5602 5603 5603
5553 5554 5556 5555 5552 5552 5553 5563 5564 5559 5557 5559 5558 5556 5554 5554 5554 5555 5556 5557 5558 5559 5559 5559 5560 5561 5563 5565 5567 5569 5572 5575 5576 5578 5579 5581 5583 5585 5586 5588 5588 5589 5591 5592 5594 5594 5594 5594 5594
5548 5550 5552 5550 5545 5545 5547 5554 5554 5548 5549 5550 5550 5549 5548 5547 5546 5546 5546 5547 5548 5549 5549 5550 5550 5552 5553 5555 5557 5560 5561 5564 5566 5568 5570 5572 5574 5576 5578 5579 5580 5581 5583 5584 5585 5585 5586 5585 5584
5546 5546 5545 5544 5538 5536 5538 5543 5543 5540 5539 5542 5542 5542 5540 5540 5539 5537 5536 5537 5537 5538 5539 5540 5540 5542 5544 5546 5548 5550 5551 5554 5556 5558 5560 5562 5564 5566 5568 5570 5571 5573 5575 5575 5576 5576 5576 5576 5574
5534 5534 5535 5536 5528 5527 5532 5536 5536 5533 5533 5534 5535 5534 5533 5532 5531 5528 5528 5527 5528 5529 5530 5531 5532 5532 5534 5537 5538 5540 5543 5544 5546 5548 5551 5552 5554 5556 5558 5560 5563 5565 5566 5567 5568 5567 5567 5566 5565
5523 5524 5527 5526 5518 5518 5523 5528 5531 5526 5525 5525 5525 5524 5523 5521 5520 5519 5518 5518 5519 5520 5521 5522 5523 5524 5525 5527 5529 5531 5532 5534 5537 5538 5541 5543 5544 5546 5548 5551 5553 5555 5556 5557 5558 5559 5558 5557 5557
5513 5515 5516 5515 5510 5508 5511 5526 5526 5521 5515 5513 5513 5513 5512 5511 5511 5510 5509 5509 5509 5511 5512 5513 5514 5515 5516 5517 5519 5520 5521 5524 5526 5529 5532 5533 5535 5536 5538 5541 5543 5544 5546 5548 5549 5550 5551 5550 5549
5508 5505 5503 5502 5503 5511 5506 5521 5527 5515 5508 5505 5505 5504 5503 5501 5500 5499 5499 5499 5500 5501 5502 5503 5504 5506 5507 5508 5510 5512 5514 5517 5519 5519 5521 5523 5525 5526 5528 5530 5532 5534 5537 5538 5539 5540 5542 5543 5543
5495 5492 5492 5492 5494 5497 5499 5499 5523 5504 5503 5503 5499 5496 5493 5491 5490 5489 5489 5489 5489 5490 5491 5493 5494 5496 5498 5499 5501 5503 5504 5507 5508 5509 5511 5514 5515 5516 5518 5520 5521 5523 5526 5528 5529 5530 5531 5533 5535
5479 5482 5482 5482 5486 5491 5497 5495 5517 5506 5501 5499 5492 5487 5483 5480 5479 5479 5478 5478 5479 5479 5481 5483 5485 5486 5488 5490 5491 5494 5495 5497 5499 5501 5502 5504 5505 5506 5508 5509 5511 5513 5514 5516 5519 5520 5521 5522 5524
5474 5479 5486 5488 5488 5499 5480 5482 5503 5493 5487 5485 5480 5477 5473 5470 5469 5469 5468 5468 5468 5469 5471 5473 5475 5477 5479 5480 5482 5485 5486 5487 5489 5492 5493 5494 5496 5497 5498 5499 5500 5502 5504 5505 5507 5509 5510 5512 5513
5464 5470 5478 5486 5494 5497 5469 5481 5493 5474 5470 5469 5467 5464 5461 5460 5458 5457 5457 5457 5458 5458 5459 5462 5465 5467 5468 5470 5472 5474 5476 5478 5480 5481 5483 5484 5486 5488 5488 5488 5490 5491 5493 5494 5495 5498 5499 5501 5502
5455 5459 5456 5459 5454 5463 5481 5477 5473 5462 5461 5459 5458 5455 5452 5449 5446 5446 5446 5446 5446 5447 5448 5451 5454 5456 5458 5460 5462 5464 5466 5468 5469 5471 5472 5473 5475 5477 5477 5478 5479 5480 5481 5483 5485 5487 5489 5490 5491
5443 5445 5445 5449 5456 5469 5477 5470 5478 5464 5460 5454 5449 5446 5443 5438 5436 5435 5434 5434 5434 5435 5437 5439 5442 5444 5447 5449 5451 5454 5456 5457 5458 5460 5462 5464 5465 5466 5467 5467 5468 5470 5471 5472 5474 5476 5478 5480 5480
5431 5431 5434 5439 5438 5452 5463 5474 5460 5453 5448 5444 5440 5434 5431 5427 5425 5424 5423 5423 5424 5424 5426 5427 5430 5432 5435 5438 5440 5443 5445 5447 5448 5450 5452 5453 5454 5455 5456 5457 5458 5460 5460 5462 5463 5466 5467 5469 5470
5420 5424 5425 5431 5428 5425 5439 5456 5439 5436 5432 5429 5426 5422 5418 5415 5413 5411 5411 5412 5413 5414 5415 5417 5419 5422 5425 5427 5429 5431 5434 5436 5438 5440 5441 5443 5444 5445 5446 5446 5448 5449 5450 5451 5453 5455 5456 5458 5459